[[{"header":{"parameterUnit":"m.s-1","parameterCategory":1,"la1":30.2991,"la2":30.254,"lo1":-89.0895,"lo2":-89.0444,"dy":0.0017,"dx":0.0017,"nx":28,"ny":28,"refTime":"2023-09-25T03:00:00:Z","depth":0,"parameterNumber":2,"parameterNumberName":"U-component_of_WINDS"},"data":[0,0,0,0,0,0,0,0,0,0,0,0,0,0,0,0,0,0,0,0,0,0,0,0,0,0,0,0,0,0,0,0,0,0,0,0,0,0,0,0,0,0,0,0,0,0,0,0,0,0,0,0,0,0,0,0,0,0,-1.4419,-1.442,0,-1.4496,-1.4497,-1.4497,-1.4459,-1.4457,-1.4455,-1.4453,-1.4532,-1.4536,-1.454,0,0,0,0,0,0,0,0,0,0,0,0,0,-1.4239,-1.4243,-1.4419,-1.442,-1.4421,-1.4496,-1.4497,-1.4498,-1.4459,-1.4457,-1.4454,-1.4452,-1.4531,-1.4536,-1.4541,0,0,0,0,0,0,0,0,0,0,0,0,0,-1.4317,-1.4244,-1.4419,-1.4411,-1.4411,-1.4495,-1.4497,-1.4498,-1.446,-1.4457,-1.4454,-1.4451,-1.453,-1.4535,-1.4541,-1.4639,0,0,-1.456,-1.4562,0,0,0,0,0,0,0,0,-1.4313,-1.4324,-1.4411,-1.4411,-1.4412,-1.4465,-1.4462,-1.4545,-1.446,-1.4441,-1.4453,-1.4449,-1.4512,-1.452,-1.4541,-1.4643,-1.4646,-1.456,-1.4564,-1.4566,-1.4568,0,0,0,0,0,0,0,-1.4307,-1.432,-1.4449,-1.4412,-1.4413,-1.4403,-1.4411,-1.4478,-1.4493,-1.4443,-1.444,-1.4449,-1.4512,-1.4535,-1.4542,-1.4647,-1.456,-1.4565,-1.4569,-1.4571,-1.4832,-1.4835,0,0,0,0,0,0,-1.4302,-1.4316,-1.4447,-1.4452,-1.4354,-1.4409,-1.4417,-1.4451,-1.4492,-1.4495,-1.4452,-1.4447,-1.4526,-1.4535,-1.4545,-1.4661,-1.4566,-1.4572,-1.4575,-1.4829,-1.4833,-1.4836,0,0,0,0,0,0,-1.4299,-1.4314,-1.4444,-1.4383,-1.4399,-1.4415,-1.4453,-1.4454,-1.4477,-1.4499,-1.4502,-1.4473,-1.4524,-1.4536,-1.4615,-1.4663,-1.4575,-1.458,-1.4825,-1.483,-1.4834,-1.4895,0,0,0,0,0,0,-1.4294,-1.4313,-1.435,-1.4384,-1.4402,-1.4513,-1.4456,-1.4457,-1.4487,-1.4482,-1.4519,-1.4523,-1.4523,-1.4607,-1.4621,-1.467,-1.4585,-1.482,-1.4827,-1.4833,-1.4889,-1.4902,-1.4912,0,0,0,0,0,-1.4287,-1.4365,-1.4353,-1.4369,-1.4449,-1.4516,-1.4527,-1.4525,-1.4491,-1.4529,-1.4543,-1.4521,-1.4656,-1.4615,-1.4631,-1.4683,-1.4817,-1.4825,-1.4832,-1.4884,-1.4899,-1.4912,0,0,0,0,0,0,-1.4337,-1.4369,-1.4356,-1.4447,-1.4479,-1.451,-1.4557,-1.4541,-1.4584,-1.4578,-1.4574,-1.4583,-1.4665,-1.4681,-1.4636,-1.4779,-1.4731,-1.4742,-1.4765,-1.478,-1.4791,-1.4786,-1.459,0,0,0,0,0,-1.4359,-1.441,-1.4435,-1.4513,-1.453,-1.4541,-1.457,-1.4566,-1.4599,-1.4613,-1.4633,-1.4666,-1.4715,-1.4748,-1.4795,-1.4891,-1.4898,-1.4934,-1.4946,-1.4955,-1.4965,-1.5016,-1.5032,-1.4861,-1.4861,-1.4861,0,0,-1.4404,-1.4428,-1.4461,-1.4524,-1.4548,-1.4602,-1.4553,-1.4611,-1.4651,-1.4622,-1.4697,-1.4713,-1.475,-1.4838,-1.4877,-1.4854,-1.5014,-1.4965,-1.4972,-1.4977,-1.5026,-1.5042,-1.5056,-1.4866,-1.4865,-1.4864,0,0,-1.4513,-1.4537,-1.4604,-1.4629,-1.4666,-1.4673,-1.4689,-1.4721,-1.4731,-1.4806,-1.4785,-1.4832,-1.4918,-1.4945,-1.497,-1.5088,-1.507,-1.5104,-1.5165,-1.5215,-1.5229,-1.5241,-1.5283,-1.5298,-1.5113,-1.5113,-1.5114,0,-1.4565,-1.4644,-1.464,-1.47,-1.4729,-1.4704,-1.4771,-1.4796,-1.4847,-1.4867,-1.4841,-1.4947,-1.497,-1.5063,-1.5092,-1.5113,-1.5131,-1.51,-1.5227,-1.5239,-1.525,-1.529,-1.5306,-1.5117,-1.5117,-1.5116,-1.5116,0,-1.4705,-1.4761,-1.481,-1.486,-1.4893,-1.4957,-1.4963,-1.4997,-1.499,-1.4999,-1.5076,-1.5103,-1.5155,-1.5176,-1.517,-1.5269,-1.5253,-1.5227,-1.5179,-1.527,-1.5308,-1.5323,-1.5123,-1.5121,-1.512,-1.5119,0,0,-1.4849,-1.4895,-1.4913,-1.4935,-1.4973,-1.5016,-1.5079,-1.5128,-1.5158,-1.5194,-1.5246,-1.5318,-1.5294,-1.5322,-1.5319,-1.5363,-1.5454,-1.5331,-1.5332,-1.5353,-1.5564,-1.5583,-1.5601,-1.5442,-1.5445,-1.5447,-1.5561,0,-1.4961,-1.507,-1.5068,-1.5169,-1.522,-1.5196,-1.525,-1.528,-1.529,-1.5335,-1.5346,-1.5397,-1.5361,-1.5378,-1.542,-1.5434,-1.5497,-1.5426,-1.5491,-1.5493,-1.5482,-1.5621,-1.5642,-1.5748,-1.5575,-1.5578,-1.558,0,-1.5107,-1.5147,-1.5253,-1.5283,-1.5304,-1.5353,-1.5398,-1.5441,-1.5474,-1.5478,-1.551,-1.5499,-1.5562,-1.5512,-1.5599,-1.5551,-1.5577,-1.5588,-1.5592,-1.5598,-1.5542,-1.5631,-1.5782,-1.5798,-1.5603,-1.5601,-1.5599,0,-1.5201,-1.5281,-1.5354,-1.5374,-1.5411,-1.5446,-1.5463,-1.5493,-1.5523,-1.5563,-1.5582,-1.5628,-1.5654,-1.569,-1.5692,-1.5656,-1.5779,-1.573,-1.5785,-1.5785,-1.5812,-1.581,-1.5969,-1.5829,-1.5829,-1.5829,-1.5828,0,-1.5326,-1.5392,-1.5397,-1.5442,-1.5515,-1.5512,-1.5584,-1.5598,-1.5624,-1.5672,-1.5655,-1.57,-1.5699,-1.5745,-1.5747,-1.5818,-1.583,-1.5835,-1.5835,-1.5837,-1.5836,-1.5854,-1.5847,-1.5833,-1.5832,-1.5831,-1.583,0,-1.5444,-1.545,-1.5528,-1.5557,-1.5566,-1.5618,-1.5643,-1.5686,-1.5694,-1.5754,-1.5768,-1.5781,-1.5834,-1.5839,-1.5901,-1.5902,-1.5988,-1.598,-1.5977,-1.5976,-1.603,-1.6025,-1.6206,-1.6229,-1.6074,-1.6075,-1.6077,0,-1.5523,-1.5573,-1.5607,-1.5637,-1.5656,-1.5706,-1.5736,-1.5734,-1.5766,-1.5807,-1.5845,-1.5896,-1.5937,-1.6022,-1.6037,-1.6084,-1.6077,-1.6137,-1.6084,-1.6084,-1.6078,-1.6075,-1.6079,-1.6148,-1.6149,-1.6151,-1.6152,0,-1.5664,-1.5664,-1.5708,-1.5753,-1.5789,-1.5825,-1.5858,-1.5884,-1.5886,-1.5923,-1.5976,-1.6008,-1.6071,-1.6121,-1.6167,-1.6185,-1.6169,-1.6168,-1.6183,-1.6186,-1.6182,-1.6185,-1.6005,-1.6164,-1.6163,-1.6162,-1.6161,-1.6161,-1.5765,-1.5808,-1.5838,-1.5887,-1.5912,-1.5943,-1.5985,-1.5997,-1.6042,-1.6092,-1.6088,-1.6148,-1.6179,-1.6238,-1.626,-1.6306,-1.6286,-1.6308,-1.6313,-1.6319,-1.6324,-1.6175,-1.6314,-1.6314,-1.6314,-1.6313,-1.6313,0,-1.5904,-1.5922,-1.5967,-1.6014,-1.6053,-1.6033,-1.6069,-1.6103,-1.6155,-1.6185,-1.6225,-1.6286,-1.6335,-1.6354,-1.6401,-1.6435,-1.6429,-1.6448,-1.6445,-1.6449,-1.634,-1.6322,-1.6452,-1.6452,-1.6452,-1.6452,-1.6452,-1.6452,-1.5981,-1.6052,-1.6056,-1.614,-1.6157,-1.6215,-1.6237,-1.6265,-1.6289,-1.6358,-1.6398,-1.641,-1.6435,-1.6484,-1.6528,-1.6532,-1.6551,-1.6573,-1.6574,-1.6471,-1.6457,-1.6444,-1.6427,-1.6577,-1.6577,-1.668,-1.6681,-1.6681]},{"header":{"parameterUnit":"m.s-1","parameterCategory":1,"la1":30.2991,"la2":30.254,"lo1":-89.0895,"lo2":-89.0444,"dy":0.0017,"dx":0.0017,"nx":28,"ny":28,"refTime":"2023-09-25T03:00:00:Z","depth":0,"parameterNumber":3,"parameterNumberName":"V-component_of_WINDS"},"data":[0,0,0,0,0,0,0,0,0,0,0,0,0,0,0,0,0,0,0,0,0,0,0,0,0,0,0,0,0,0,0,0,0,0,0,0,0,0,0,0,0,0,0,0,0,0,0,0,0,0,0,0,0,0,0,0,0,0,-2.3225,-2.3225,0,-2.3225,-2.3225,-2.3225,-2.3194,-2.3193,-2.3192,-2.3191,-2.319,-2.3191,-2.3192,0,0,0,0,0,0,0,0,0,0,0,0,0,-2.3197,-2.3198,-2.3225,-2.3225,-2.3225,-2.3225,-2.3225,-2.3225,-2.3194,-2.3193,-2.3192,-2.3191,-2.319,-2.3191,-2.3192,0,0,0,0,0,0,0,0,0,0,0,0,0,-2.3204,-2.3198,-2.3225,-2.3209,-2.3208,-2.3225,-2.3225,-2.3225,-2.3194,-2.3193,-2.3191,-2.319,-2.319,-2.3191,-2.3192,-2.3223,0,0,-2.3195,-2.3196,0,0,0,0,0,0,0,0,-2.3204,-2.3205,-2.3212,-2.3211,-2.3209,-2.3208,-2.3214,-2.3224,-2.3194,-2.3199,-2.3191,-2.319,-2.3197,-2.3198,-2.32,-2.3223,-2.3223,-2.3195,-2.3196,-2.3197,-2.3197,0,0,0,0,0,0,0,-2.3203,-2.3205,-2.3225,-2.3212,-2.321,-2.3202,-2.3202,-2.3216,-2.3205,-2.3199,-2.3197,-2.3197,-2.3196,-2.3199,-2.32,-2.3223,-2.3195,-2.3196,-2.3197,-2.3198,-2.327,-2.3271,0,0,0,0,0,0,-2.3205,-2.3205,-2.3225,-2.3225,-2.3203,-2.3204,-2.3203,-2.3209,-2.3205,-2.3203,-2.3198,-2.3195,-2.3198,-2.3199,-2.32,-2.3235,-2.3197,-2.3198,-2.3198,-2.3268,-2.327,-2.3271,0,0,0,0,0,0,-2.3205,-2.3207,-2.3225,-2.3214,-2.3216,-2.3205,-2.3213,-2.321,-2.3213,-2.3204,-2.3202,-2.3203,-2.3197,-2.3198,-2.3217,-2.3234,-2.3198,-2.3199,-2.3267,-2.3269,-2.3271,-2.3305,0,0,0,0,0,0,-2.3204,-2.3207,-2.322,-2.3215,-2.3217,-2.3243,-2.3214,-2.3211,-2.3215,-2.3212,-2.3209,-2.3207,-2.3196,-2.3216,-2.3218,-2.3235,-2.32,-2.3265,-2.3268,-2.327,-2.3303,-2.3308,-2.3313,0,0,0,0,0,-2.3203,-2.323,-2.322,-2.3223,-2.3232,-2.3244,-2.3245,-2.3232,-2.3217,-2.3228,-2.3222,-2.3207,-2.3232,-2.3218,-2.3221,-2.3238,-2.3264,-2.3267,-2.327,-2.33,-2.3307,-2.3313,0,0,0,0,0,0,-2.3237,-2.3229,-2.3218,-2.3244,-2.3245,-2.3239,-2.3253,-2.324,-2.3245,-2.3242,-2.3226,-2.3225,-2.3246,-2.3244,-2.3229,-2.3267,-2.3245,-2.3249,-2.3268,-2.3274,-2.3279,-2.3279,-2.3201,0,0,0,0,0,-2.3247,-2.3258,-2.325,-2.3274,-2.3275,-2.3264,-2.3269,-2.3259,-2.3259,-2.3259,-2.3255,-2.3255,-2.3263,-2.3268,-2.3275,-2.3302,-2.33,-2.3316,-2.3321,-2.3325,-2.3328,-2.3341,-2.3347,-2.3281,-2.3281,-2.3281,0,0,-2.3269,-2.3266,-2.3274,-2.3281,-2.328,-2.3291,-2.3264,-2.3278,-2.3285,-2.3261,-2.3278,-2.3275,-2.3274,-2.3297,-2.3307,-2.3296,-2.3346,-2.3329,-2.3332,-2.3333,-2.3344,-2.335,-2.3356,-2.3282,-2.3282,-2.3282,0,0,-2.3314,-2.3313,-2.3332,-2.3331,-2.3331,-2.3323,-2.3328,-2.3323,-2.332,-2.3337,-2.3319,-2.3327,-2.3342,-2.3341,-2.3343,-2.3387,-2.3372,-2.3389,-2.3416,-2.3429,-2.3434,-2.3438,-2.3452,-2.3458,-2.3392,-2.3393,-2.3393,0,-2.3341,-2.3357,-2.3343,-2.3357,-2.336,-2.3338,-2.3356,-2.3357,-2.3358,-2.3361,-2.3348,-2.3365,-2.3363,-2.3384,-2.3395,-2.3397,-2.3401,-2.3389,-2.3434,-2.3439,-2.3443,-2.3456,-2.3461,-2.3395,-2.3394,-2.3394,-2.3394,0,-2.3389,-2.3401,-2.3416,-2.3417,-2.3422,-2.3438,-2.3426,-2.3432,-2.3422,-2.3415,-2.3432,-2.3429,-2.3434,-2.3439,-2.3429,-2.3459,-2.3451,-2.3437,-2.3415,-2.3451,-2.3463,-2.3468,-2.3397,-2.3397,-2.3396,-2.3396,0,0,-2.3455,-2.3448,-2.3454,-2.3454,-2.3451,-2.3459,-2.3474,-2.3478,-2.3484,-2.3485,-2.3496,-2.3508,-2.3494,-2.3496,-2.3486,-2.3497,-2.353,-2.3481,-2.3481,-2.3489,-2.3561,-2.3571,-2.3578,-2.3521,-2.3522,-2.3522,-2.3561,0,-2.3498,-2.3522,-2.351,-2.3535,-2.3545,-2.3524,-2.3536,-2.3536,-2.353,-2.3536,-2.353,-2.3538,-2.352,-2.3521,-2.3531,-2.3524,-2.3544,-2.3521,-2.353,-2.353,-2.353,-2.3584,-2.3595,-2.3632,-2.3566,-2.3566,-2.3567,0,-2.3551,-2.3554,-2.358,-2.3574,-2.3578,-2.3589,-2.3592,-2.3599,-2.3597,-2.3592,-2.3594,-2.358,-2.3593,-2.3572,-2.3589,-2.3574,-2.3576,-2.3573,-2.3575,-2.3574,-2.355,-2.3584,-2.3643,-2.3648,-2.3575,-2.3574,-2.3573,0,-2.3595,-2.3606,-2.3622,-2.3623,-2.3617,-2.3625,-2.3623,-2.362,-2.3623,-2.3625,-2.3627,-2.3631,-2.3633,-2.3636,-2.3624,-2.361,-2.3642,-2.362,-2.3637,-2.3637,-2.3644,-2.3644,-2.3703,-2.3648,-2.3648,-2.3648,-2.3648,0,-2.3643,-2.3659,-2.3642,-2.3652,-2.367,-2.3655,-2.3673,-2.3668,-2.3666,-2.3674,-2.3657,-2.3665,-2.3649,-2.3655,-2.3646,-2.3661,-2.3662,-2.3657,-2.3655,-2.3658,-2.3659,-2.3659,-2.3656,-2.3649,-2.3649,-2.3649,-2.3648,0,-2.3695,-2.3684,-2.3701,-2.3693,-2.3691,-2.3704,-2.3698,-2.3706,-2.3699,-2.371,-2.3712,-2.37,-2.3706,-2.3695,-2.37,-2.3694,-2.3714,-2.3708,-2.3714,-2.3712,-2.373,-2.3728,-2.3791,-2.3798,-2.3739,-2.374,-2.374,0,-2.3726,-2.3738,-2.3731,-2.3735,-2.3734,-2.3741,-2.3744,-2.373,-2.3733,-2.3731,-2.374,-2.3745,-2.3748,-2.376,-2.3751,-2.3755,-2.3748,-2.377,-2.3748,-2.3751,-2.3747,-2.3746,-2.3746,-2.3774,-2.3775,-2.3775,-2.3776,0,-2.3781,-2.3775,-2.378,-2.3782,-2.3786,-2.3788,-2.3788,-2.3792,-2.3777,-2.3782,-2.3788,-2.379,-2.3795,-2.38,-2.3801,-2.3798,-2.3784,-2.3783,-2.3787,-2.379,-2.3793,-2.379,-2.3725,-2.3781,-2.3781,-2.378,-2.378,-2.378,-2.3823,-2.3832,-2.3828,-2.3834,-2.3832,-2.3832,-2.384,-2.3833,-2.3838,-2.384,-2.3832,-2.384,-2.3836,-2.3837,-2.3835,-2.3841,-2.3831,-2.3837,-2.3838,-2.384,-2.3842,-2.3793,-2.3841,-2.3841,-2.3841,-2.3841,-2.3841,0,-2.3876,-2.3872,-2.3878,-2.3878,-2.3882,-2.3868,-2.3867,-2.3872,-2.3879,-2.3877,-2.388,-2.3887,-2.3891,-2.3883,-2.3886,-2.3892,-2.3885,-2.3893,-2.3892,-2.3891,-2.3851,-2.3847,-2.3898,-2.3898,-2.3898,-2.3898,-2.3898,-2.3898,-2.3904,-2.3919,-2.3912,-2.3925,-2.3921,-2.3928,-2.3929,-2.3929,-2.3927,-2.3935,-2.3938,-2.3933,-2.3928,-2.393,-2.3933,-2.393,-2.3932,-2.3941,-2.3936,-2.3899,-2.3894,-2.3888,-2.3884,-2.3942,-2.3942,-2.3975,-2.3976,-2.3976]}]]